TimeMST,TemperatureF,Dew PointF,Humidity,Sea Level PressureIn,VisibilityMPH,Wind Direction,Wind SpeedMPH,Gust SpeedMPH,PrecipitationIn,Events,Conditions,WindDirDegrees,DateUTC
12:53 AM,34.0,32.0,92,29.88,10.0,Calm,Calm,-,N/A,,Clear,0,2012-12-13 07:53:00
1:53 AM,32.0,30.0,92,29.89,7.0,South,4.6,-,N/A,,Mostly Cloudy,190,2012-12-13 08:53:00
2:34 AM,33.8,30.2,87,29.87,8.0,SW,3.5,-,N/A,,Mostly Cloudy,220,2012-12-13 09:34:00
2:46 AM,32.0,30.2,93,29.87,1.0,SW,4.6,-,N/A,,Mostly Cloudy,220,2012-12-13 09:46:00
2:53 AM,32.0,30.9,96,29.90,2.0,SW,4.6,-,N/A,,Mostly Cloudy,220,2012-12-13 09:53:00
2:56 AM,32.0,30.2,93,29.87,1.0,SW,4.6,-,N/A,,Overcast,220,2012-12-13 09:56:00
3:31 AM,32.0,30.2,93,29.88,9.0,WSW,3.5,-,N/A,,Partly Cloudy,240,2012-12-13 10:31:00
3:53 AM,32.0,30.0,92,29.90,10.0,West,3.5,-,N/A,,Mostly Cloudy,280,2012-12-13 10:53:00
4:53 AM,32.0,30.9,96,29.93,4.0,West,4.6,-,N/A,,Overcast,270,2012-12-13 11:53:00
5:53 AM,30.9,30.0,96,29.94,4.0,Calm,Calm,-,N/A,,Overcast,0,2012-12-13 12:53:00
6:53 AM,32.0,30.0,92,29.94,6.0,Calm,Calm,-,N/A,,Overcast,0,2012-12-13 13:53:00
6:57 AM,32.0,30.2,93,29.90,3.0,Calm,Calm,-,N/A,,Overcast,0,2012-12-13 13:57:00
7:34 AM,30.2,30.2,100,29.90,2.0,WSW,4.6,-,N/A,,Overcast,250,2012-12-13 14:34:00
7:53 AM,30.9,28.9,92,29.96,3.0,Calm,Calm,-,N/A,,Overcast,0,2012-12-13 14:53:00
8:53 AM,30.9,28.9,92,29.96,4.0,Calm,Calm,-,N/A,,Overcast,0,2012-12-13 15:53:00
9:21 AM,30.2,30.2,100,29.93,1.5,NW,3.5,-,N/A,,Overcast,310,2012-12-13 16:21:00
9:53 AM,32.0,30.0,92,29.97,1.5,WNW,3.5,-,N/A,,Overcast,300,2012-12-13 16:53:00
10:53 AM,32.0,30.0,92,29.98,1.5,WSW,3.5,-,N/A,,Overcast,250,2012-12-13 17:53:00
10:55 AM,32.0,30.2,93,29.94,2.0,Calm,Calm,-,N/A,,Overcast,0,2012-12-13 17:55:00
11:08 AM,32.0,28.4,87,29.93,5.0,WSW,3.5,-,N/A,,Overcast,250,2012-12-13 18:08:00
11:25 AM,32.0,28.4,87,29.93,5.0,West,3.5,-,N/A,,Overcast,260,2012-12-13 18:25:00
11:53 AM,33.1,28.9,85,29.96,8.0,Calm,Calm,-,N/A,,Overcast,0,2012-12-13 18:53:00
12:21 PM,33.8,28.4,81,29.91,10.0,Calm,Calm,-,N/A,,Overcast,0,2012-12-13 19:21:00
12:53 PM,34.0,28.9,82,29.94,10.0,Variable,4.6,-,N/A,,Overcast,0,2012-12-13 19:53:00
1:53 PM,35.1,28.9,78,29.93,10.0,WNW,4.6,-,N/A,,Overcast,290,2012-12-13 20:53:00
2:53 PM,36.0,30.0,79,29.91,10.0,NW,4.6,-,N/A,,Overcast,310,2012-12-13 21:53:00
5:53 PM,35.6,30.2,81,29.84,10.0,Calm,Calm,-,N/A,,Overcast,0,2012-12-14 00:53:00
6:53 PM,36.0,30.0,79,29.89,10.0,SSW,3.5,-,N/A,,Overcast,210,2012-12-14 01:53:00
7:53 PM,35.1,30.0,82,29.89,10.0,Calm,Calm,-,N/A,,Overcast,0,2012-12-14 02:53:00
8:53 PM,35.1,30.0,82,29.88,10.0,Calm,Calm,-,N/A,,Overcast,0,2012-12-14 03:53:00
9:53 PM,35.1,30.0,82,29.88,10.0,Calm,Calm,-,N/A,,Overcast,0,2012-12-14 04:53:00
10:53 PM,35.6,30.2,81,29.83,10.0,Calm,Calm,-,N/A,,Overcast,0,2012-12-14 05:53:00
11:53 PM,35.1,30.0,82,29.86,10.0,Calm,Calm,-,N/A,,Overcast,0,2012-12-14 06:53:00